Current Version              Previous Version:    01  02  03  04  05  06  07  08  09  10  11  12  13  14  15  16  17  18  19  20  21  22  23  24  25  26  27  28  29  30  
   31  32  33  34  35  36  37  38  39  40  41  42  43  44  45  46  47  48  49  50  51  52  53  54  55  56  57  58  59  60  

[Printable]
761
ASUS44 KFWD 230710
RWRTX
NORTH TEXAS HOURLY WEATHER ROUNDUP
NATIONAL WEATHER SERVICE FORT WORTH TX
200 AM CDT WED JUL 23 2014

NOTE: "FAIR" INDICATES FEW OR NO CLOUDS BELOW 12,000 FEET WITH NO
SIGNIFICANT WEATHER AND/OR OBSTRUCTIONS TO VISIBILITY.

TXZ118-119-230800-
DALLAS/FORT WORTH METROPLEX

CITY           SKY/WX    TMP DP  RH WIND       PRES   REMARKS
DFW AIRPORT    CLEAR     80  69  69 SE6       30.07S
DALLAS LOVE    CLEAR     81  68  64 SE6       30.07S
FTW MEACHAM    CLEAR     81  70  69 SE6       30.07S
DAL-EXECUTIVE  CLEAR     77  70  79 S3        30.07S
FTW-ALLIANCE   CLEAR     77  70  79 SE5       30.07S
FTW-NAS-JRB    CLEAR     84  69  60 SE5       30.11S
FTW-SPINKS     CLEAR     76  69  79 CALM      30.09F HAZE
ARLINGTON      CLEAR     79  69  71 SE5       30.07S
GRAND PRAIRIE  CLEAR     80  68  66 CALM      30.08S
ADDISON        CLEAR     82  68  62 SE5       30.09S
MESQUITE       CLEAR     75  69  81 CALM      30.07S
LANCASTER      CLEAR     72  67  85 CALM      30.08S
$$

TXZ091>094-102>105-117-120-121-131>134-230800-
NORTH CENTRAL TEXAS

CITY           SKY/WX    TMP DP  RH WIND       PRES   REMARKS
SHRMAN/DENISON CLEAR     79  70  73 SE7       30.10R
GAINESVILLE    CLEAR     76  71  86 CALM      30.11R
BOWIE          CLEAR     75  72  91 CALM      30.10S
BRIDGEPORT     CLEAR     74  70  86 CALM      30.10S
DECATUR        CLEAR     77  70  80 SE3       30.10S
DENTON         CLEAR     77  71  82 CALM      30.07S
MCKINNEY       CLEAR     73  70  90 CALM      30.08R
GREENVILLE     CLEAR     72  70  94 CALM      30.08S
ROCKWALL       CLEAR     76  70  83 SE3       30.07R
TERRELL        CLEAR     76  71  85 E3        30.07S
WAXAHACHIE     CLEAR     76  68  77 CALM      30.09S
CLEBURNE       CLEAR     79  73  83 E8        30.10S
GRANBURY       CLEAR     82  71  69 CALM      30.09S
$$

TXZ083>090-098>101-113>116-127>130-139>142-154-155-230800-
WESTERN NORTH TEXAS

CITY           SKY/WX    TMP DP  RH WIND       PRES   REMARKS
WICHITA FALLS  CLEAR     79  72  79 SE3       30.09R
WF-KICKAPOO    CLEAR     78  72  80 CALM      30.10S
VERNON         PTCLDY    78  69  73 CALM      30.12R
ABILENE        MOCLDY    79  67  66 SE5       30.13S
ABILENE-DYESS  CLEAR     79  67  67 SE6       30.12S
BRECKENRIDGE   CLEAR     81  67  63 SE3       30.10S
MINERAL WELLS  CLEAR     76  70  82 SE6       30.08S
STEPHENVILLE   CLEAR     78  69  76 CALM      30.12F
COMANCHE       CLEAR     77  70  77 SE3       30.10F
BROWNWOOD      CLOUDY    77  70  78 CALM      30.10S
COLEMAN        PTCLDY    77  69  77 CALM      30.11F
BRADY          CLEAR     79  66  65 CALM      30.11S
$$

TXZ143>147-156>162-174-175-230800-
CENTRAL TEXAS

CITY           SKY/WX    TMP DP  RH WIND       PRES   REMARKS
WACO           CLEAR     79  72  79 E3        30.06R
WACO-MCGREGOR  CLEAR     79  72  78 E5        30.08R
HILLSBORO      CLEAR     77  70  78 E5        30.08S HAZE
CORSICANA      CLEAR     78  71  79 SE5       30.08R
MEXIA          CLEAR     76  72  89 CALM      30.06S
HEARNE         CLEAR     83  78  85 E3        30.05R HX  94
CAMERON        CLEAR     79  75  88 E3        30.04S
TEMPLE         CLEAR     79  70  73 E7        30.06S
KILLEEN        CLEAR     81  73  78 E5        30.06F
KILLEEN-SKYLRK CLEAR     79  70  73 E3        30.06S
FORT HOOD      CLEAR     82  72  71 CALM      30.06S
GATESVILLE     CLEAR     79  72  78 MISG      30.09S
HAMILTON       CLEAR     78  71  80 SE5       30.10F
LAMPASAS       CLEAR     78  72  82 CALM      30.07S
$$

TXZ095>097-106>112-122>126-135>138-148>153-164>167-230800-
EAST TEXAS

CITY           SKY/WX    TMP DP  RH WIND       PRES   REMARKS
PARIS          CLEAR     73  66  78 E3        30.10R
SULPHUR SPRNGS CLEAR     74  71  92 CALM      30.10S
CLARKSVILLE    PTCLDY    74  72  95 CALM      30.09R
MOUNT PLEASANT CLEAR     73  71  93 NE3       30.09R
GILMER         CLEAR     72  72 100 CALM      30.08S
MINEOLA        CLEAR     72  72 100 CALM      30.08R
TYLER          CLEAR     74  69  85 CALM      30.06S
LONGVIEW       CLEAR     73  70  90 CALM      30.06S
MARSHALL       CLEAR     73  71  92 CALM      30.08F
ATHENS         CLEAR     72  70  94 CALM      30.06S
JACKSONVILLE   CLEAR     75  69  82 CALM      30.09S
HENDERSON      CLEAR     70  70  98 CALM      30.08S
NACOGDOCHES    CLEAR     70  66  88 CALM      30.06S
LUFKIN         CLEAR     74  70  87 CALM      30.04S
$$

SUPPLEMENTAL OBSERVATIONS (CENTRAL)

CITY           SKY/WX    TMP DP  RH WIND       PRES   REMARKS
CADDO GRASSLND   N/A     73  68  83 S1          N/A
PAT MAYSE LAKE   N/A     73  68  83 NW1         N/A
MCGREGOR         N/A     79  73  83 E2          N/A
$$

SUPPLEMENTAL OBSERVATIONS (WEST)

CITY           SKY/WX    TMP DP  RH WIND       PRES   REMARKS
MILLERS CREEK    N/A     81  64  57 E3          N/A
LBJ GRASSLAND    N/A     79  70  73 SE5         N/A
HAMBY            N/A     79  64  61 SE3         N/A
COLORADO BEND    N/A     77  66  69 CALM        N/A
$$

SUPPLEMENTAL OBSERVATIONS (EAST)

CITY           SKY/WX    TMP DP  RH WIND       PRES   REMARKS
HENDERSON        N/A     72  68  88 CALM        N/A
LUFKIN           N/A     72  70  94 MISG        N/A
N SABINE NF      N/A     72  70  94 MISG        N/A
$$

SUPPLEMENTAL OBSERVATIONS ARE A COLLECTION OF AUTOMATED INSTRUMENTS
THAT ARE MAINTAINED BY A VARIETY OF FEDERAL AND STATE AGENCIES.
CERTAIN ELEMENTS...SUCH AS HUMIDITY VALUES AND SUSTAINED WIND
SPEEDS...MAY BE APPROXIMATED.